Total_Precipitation_Accumulation
1.06 1.35 1.77 2.06 2.49 2.95 3.13 3.19 3.13 3.27 3.55 3.48 3.26 2.97 2.67 2.45 2.25 2.15 2.05 1.86 1.74 1.65 1.57 1.44 1.45 1.41 1.33 1.31 1.31 1.28 1.21 1.10 1.04 1.01 0.88 0.74 0.68 0.63 0.56 0.55 0.53 0.51 0.50
0.97 1.26 1.55 1.86 2.11 2.69 3.03 3.09 3.20 3.32 3.48 3.40 3.28 3.18 3.02 2.79 2.56 2.41 2.15 1.98 1.82 1.71 1.66 1.55 1.42 1.44 1.45 1.38 1.36 1.38 1.40 1.37 1.33 1.30 1.24 1.04 0.85 0.67 0.57 0.56 0.56 0.57 0.60
0.93 1.12 1.32 1.59 1.76 2.15 2.60 2.81 2.89 3.13 3.29 3.47 3.73 3.71 3.52 3.12 2.65 2.37 2.24 2.08 2.02 1.91 1.75 1.73 1.64 1.50 1.50 1.45 1.37 1.30 1.29 1.34 1.40 1.41 1.47 1.32 1.03 0.78 0.64 0.57 0.54 0.55 0.58
0.87 1.03 1.18 1.30 1.49 1.75 2.16 2.54 2.76 2.91 2.96 3.08 3.37 3.49 3.33 2.94 2.54 2.29 2.30 2.35 2.27 2.20 2.09 1.95 1.87 1.73 1.62 1.55 1.53 1.51 1.43 1.40 1.39 1.39 1.33 1.24 1.08 1.03 0.87 0.67 0.61 0.58 0.58
0.93 1.03 1.09 1.10 1.22 1.47 1.87 2.23 2.51 2.76 2.77 2.71 2.87 3.13 3.25 3.12 2.91 2.64 2.48 2.45 2.41 2.30 2.21 2.12 2.04 1.89 1.77 1.72 1.72 1.67 1.64 1.60 1.51 1.44 1.37 1.33 1.16 1.03 1.03 0.84 0.66 0.67 0.65
1.01 1.03 1.06 1.06 1.10 1.26 1.55 1.88 2.16 2.50 2.70 2.61 2.68 2.79 2.87 2.98 2.92 2.64 2.55 2.48 2.51 2.44 2.28 2.15 2.09 2.02 1.94 1.86 1.85 1.86 1.80 1.71 1.63 1.59 1.53 1.50 1.43 1.22 1.18 1.08 0.86 0.80 0.74
0.91 0.92 0.92 0.96 1.07 1.19 1.34 1.58 1.73 2.00 2.35 2.46 2.47 2.51 2.58 2.66 2.76 2.68 2.57 2.51 2.40 2.32 2.30 2.22 2.16 2.13 2.00 1.93 1.91 1.87 1.81 1.78 1.71 1.68 1.64 1.58 1.49 1.41 1.43 1.46 1.27 1.11 0.93
0.93 0.94 0.92 0.97 1.10 1.16 1.24 1.38 1.51 1.65 1.95 2.20 2.19 2.19 2.33 2.40 2.40 2.46 2.41 2.37 2.29 2.21 2.24 2.25 2.14 2.12 2.08 1.96 1.89 1.83 1.74 1.73 1.71 1.65 1.62 1.61 1.54 1.52 1.55 1.62 1.68 1.56 1.27
0.90 0.95 0.97 1.02 1.08 1.11 1.18 1.28 1.38 1.41 1.56 1.86 1.99 2.00 2.04 2.05 1.99 2.00 2.01 2.05 2.07 2.08 2.08 2.11 2.02 1.93 1.91 1.88 1.84 1.78 1.68 1.63 1.61 1.56 1.53 1.51 1.45 1.46 1.48 1.56 1.72 1.92 1.75
0.89 0.95 0.99 0.96 0.95 0.99 1.09 1.20 1.23 1.23 1.29 1.46 1.60 1.75 1.81 1.78 1.79 1.77 1.72 1.70 1.69 1.73 1.80 1.85 1.84 1.77 1.73 1.71 1.68 1.62 1.59 1.58 1.50 1.47 1.46 1.40 1.33 1.37 1.44 1.51 1.58 1.75 1.89
0.90 0.99 1.02 0.97 0.93 0.97 1.04 1.13 1.13 1.13 1.16 1.25 1.32 1.40 1.51 1.57 1.60 1.57 1.46 1.45 1.42 1.40 1.45 1.47 1.49 1.52 1.51 1.51 1.50 1.47 1.46 1.47 1.42 1.42 1.45 1.42 1.35 1.35 1.36 1.40 1.44 1.50 1.64
0.83 0.90 0.96 0.94 0.95 1.00 1.03 1.09 1.08 1.09 1.08 1.13 1.16 1.19 1.28 1.40 1.45 1.48 1.38 1.29 1.29 1.24 1.25 1.25 1.23 1.23 1.23 1.26 1.27 1.25 1.26 1.29 1.29 1.28 1.33 1.35 1.35 1.36 1.33 1.32 1.31 1.28 1.28
0.75 0.78 0.81 0.86 0.91 0.96 0.99 1.06 1.05 0.99 0.97 1.00 1.01 1.07 1.16 1.24 1.28 1.29 1.32 1.24 1.24 1.18 1.14 1.13 1.10 1.08 1.07 1.07 1.10 1.15 1.16 1.18 1.17 1.17 1.20 1.22 1.28 1.28 1.20 1.17 1.16 1.14 1.16
0.66 0.66 0.70 0.76 0.80 0.85 0.91 0.93 0.97 0.95 0.95 0.95 0.92 0.95 1.02 1.15 1.20 1.14 1.16 1.16 1.20 1.21 1.12 1.06 1.04 1.02 1.03 1.03 1.05 1.12 1.17 1.17 1.17 1.18 1.19 1.15 1.14 1.12 1.08 1.09 1.10 1.17 1.28
0.58 0.60 0.63 0.64 0.68 0.71 0.75 0.80 0.85 0.88 0.91 0.92 0.90 0.89 0.90 1.00 1.07 1.01 1.01 1.03 1.08 1.17 1.15 1.10 1.06 1.04 1.02 1.05 1.08 1.11 1.15 1.17 1.18 1.15 1.13 1.10 1.11 1.09 1.08 1.10 1.12 1.20 1.36
0.55 0.54 0.54 0.55 0.54 0.56 0.61 0.67 0.73 0.79 0.86 0.86 0.88 0.86 0.85 0.90 0.99 0.97 0.96 0.97 1.02 1.11 1.17 1.18 1.16 1.11 1.09 1.25 1.23 1.14 1.12 1.14 1.15 1.14 1.08 1.06 1.10 1.06 1.08 1.12 1.19 1.34 1.51
0.45 0.47 0.47 0.49 0.48 0.48 0.50 0.56 0.60 0.65 0.74 0.81 0.84 0.86 0.89 0.93 0.97 0.98 0.98 1.03 1.09 1.16 1.20 1.23 1.25 1.22 1.25 1.31 1.18 1.16 1.07 1.05 1.06 1.05 1.02 0.99 0.96 1.01 0.93 1.01 1.14 1.23 1.37
0.40 0.44 0.44 0.44 0.43 0.42 0.42 0.45 0.50 0.56 0.63 0.70 0.79 0.81 0.85 0.88 0.90 0.96 0.99 1.04 1.09 1.14 1.20 1.24 1.22 1.17 1.18 1.20 1.09 1.06 0.99 0.98 0.97 0.95 0.94 0.97 0.97 0.96 1.02 1.09 1.14 1.02 0.97
0.40 0.42 0.41 0.41 0.40 0.38 0.38 0.42 0.48 0.52 0.55 0.65 0.77 0.83 0.88 0.90 0.92 0.99 1.00 1.02 1.08 1.11 1.08 1.10 1.12 1.10 1.10 1.08 0.99 0.97 0.91 0.93 0.88 0.84 0.84 0.88 0.89 1.06 1.24 1.29 1.29 1.08 0.87
0.35 0.37 0.36 0.36 0.38 0.41 0.43 0.47 0.53 0.56 0.59 0.64 0.74 0.80 0.89 0.98 1.02 1.03 1.02 0.99 1.02 1.09 1.03 0.98 0.95 0.93 0.94 0.98 0.92 0.89 0.84 0.88 0.84 0.80 0.79 0.89 0.92 1.09 1.24 1.19 1.25 1.21 1.00
0.38 0.36 0.35 0.37 0.45 0.51 0.52 0.54 0.59 0.65 0.67 0.69 0.73 0.77 0.80 0.87 0.92 0.93 0.94 0.96 0.94 0.94 0.90 0.86 0.84 0.80 0.80 0.84 0.81 0.80 0.78 0.81 0.82 0.78 0.73 0.74 0.96 1.09 1.18 1.13 1.02 1.12 1.20
0.40 0.36 0.36 0.38 0.41 0.48 0.55 0.56 0.59 0.64 0.64 0.66 0.72 0.79 0.78 0.80 0.83 0.85 0.88 0.91 0.89 0.86 0.81 0.77 0.76 0.71 0.70 0.74 0.75 0.77 0.81 0.88 0.83 0.75 0.68 0.73 0.93 0.97 0.99 0.97 1.03 1.20 1.21
0.41 0.36 0.34 0.34 0.35 0.39 0.46 0.55 0.59 0.61 0.63 0.64 0.70 0.76 0.76 0.77 0.81 0.80 0.82 0.82 0.81 0.77 0.74 0.71 0.69 0.67 0.66 0.71 0.79 0.79 0.86 0.90 0.84 0.76 0.81 0.85 0.87 0.84 0.84 0.95 1.09 1.10 1.00
0.36 0.35 0.31 0.32 0.36 0.37 0.38 0.45 0.51 0.55 0.60 0.63 0.65 0.69 0.73 0.73 0.72 0.73 0.76 0.79 0.80 0.77 0.72 0.71 0.69 0.65 0.63 0.64 0.67 0.74 0.79 0.83 0.83 0.84 0.84 0.81 0.79 0.80 0.83 0.91 0.93 0.94 1.03
0.36 0.36 0.35 0.34 0.36 0.35 0.36 0.37 0.40 0.46 0.52 0.58 0.60 0.60 0.62 0.65 0.68 0.68 0.73 0.78 0.78 0.84 0.86 0.81 0.77 0.76 0.71 0.67 0.78 0.84 0.82 0.84 0.86 0.87 0.79 0.75 0.74 0.76 0.76 0.80 0.83 0.90 1.05
0.36 0.34 0.33 0.33 0.35 0.35 0.37 0.38 0.39 0.43 0.47 0.51 0.53 0.55 0.57 0.59 0.62 0.64 0.66 0.72 0.75 0.81 0.83 0.86 0.87 0.81 0.80 0.80 0.81 0.81 0.86 0.90 0.93 0.92 0.84 0.79 0.77 0.80 0.81 0.83 0.86 0.91 1.05